| time (UTC) | temp C | wind direction | speed KPH | gust KPH | rain 1hr cm | rain 24hr cm | rain mn cm | humidity % | barometer mb |
| 20260509031552 | 14 | 360 | 0.0 | 0.0 | 0.00 | 0.00 | 0.00 | 96 | 1016.5 |
| 20260509024550 | 15 | 360 | 0.0 | 0.0 | 0.00 | 0.00 | 0.00 | 96 | 1016.6 |
| 20260509023052 | 15 | 360 | 0.0 | 0.0 | 0.00 | 0.00 | 0.00 | 95 | 1016.2 |
| 20260509021549 | 15 | 360 | 0.0 | 0.0 | 0.00 | 0.00 | 0.00 | 95 | 1016.2 |
| 20260509020049 | 15 | 360 | 0.0 | 0.0 | 0.00 | 0.00 | 0.00 | 95 | 1016.2 |
| 20260509014547 | 15 | 360 | 0.0 | 0.0 | 0.00 | 0.00 | 0.00 | 94 | 1016.2 |
| 20260509013103 | 15 | 360 | 0.0 | 0.0 | 0.00 | 0.00 | 0.00 | 94 | 1016.1 |
| 20260509011549 | 16 | 360 | 0.0 | 0.0 | 0.00 | 0.00 | 0.00 | 93 | 1016.0 |
| 20260509010046 | 16 | 360 | 0.0 | 0.0 | 0.00 | 0.00 | 0.00 | 91 | 1015.7 |
| 20260509004545 | 16 | 360 | 0.0 | 0.0 | 0.00 | 0.00 | 0.00 | 91 | 1015.6 |
| 20260509003106 | 16 | 360 | 0.0 | 0.0 | 0.00 | 0.00 | 0.00 | 89 | 1015.6 |
| 20260509001545 | 17 | 360 | 0.0 | 0.0 | 0.00 | 0.00 | 0.00 | 87 | 1015.7 |
| 20260509000047 | 17 | 360 | 0.0 | 0.0 | 0.00 | 0.00 | 0.00 | 85 | 1015.6 |
| 20260508234543 | 17 | 360 | 0.0 | 0.0 | 0.00 | 0.00 | 0.00 | 84 | 1015.3 |
| 20260508233041 | 18 | 360 | 0.0 | 0.0 | 0.00 | 0.00 | 0.00 | 84 | 1015.4 |
| 20260508231547 | 18 | 360 | 0.0 | 0.0 | 0.00 | 0.00 | 0.00 | 82 | 1015.5 |
| 20260508230039 | 18 | 360 | 0.0 | 0.0 | 0.00 | 0.00 | 0.00 | 80 | 1015.4 |
| 20260508224543 | 18 | 360 | 0.0 | 0.0 | 0.00 | 0.00 | 0.00 | 77 | 1015.6 |
| 20260508223039 | 18 | 360 | 0.0 | 0.0 | 0.00 | 0.00 | 0.00 | 78 | 1015.6 |
| 20260508221540 | 19 | 360 | 0.0 | 0.0 | 0.00 | 0.00 | 0.00 | 75 | 1015.6 |
| 20260508220037 | 19 | 360 | 0.0 | 0.0 | 0.00 | 0.00 | 0.00 | 75 | 1015.5 |
| 20260508214536 | 20 | 360 | 0.0 | 0.0 | 0.00 | 0.00 | 0.00 | 72 | 1015.6 |
| 20260508213037 | 20 | 360 | 0.0 | 0.0 | 0.00 | 0.00 | 0.00 | 71 | 1015.4 |
| 20260508211536 | 20 | 360 | 0.0 | 0.0 | 0.00 | 0.00 | 0.00 | 68 | 1015.8 |
| 20260508210035 | 21 | 360 | 0.0 | 0.0 | 0.00 | 0.00 | 0.00 | 66 | 1015.6 |
| 20260508204535 | 21 | 360 | 0.0 | 0.0 | 0.00 | 0.00 | 0.00 | 64 | 1015.5 |
| 20260508203042 | 21 | 360 | 0.0 | 0.0 | 0.00 | 0.00 | 0.00 | 62 | 1015.6 |
| 20260508201534 | 21 | 360 | 0.0 | 0.0 | 0.00 | 0.00 | 0.00 | 60 | 1016.0 |
| 20260508200036 | 21 | 360 | 0.0 | 0.0 | 0.00 | 0.00 | 0.00 | 60 | 1016.2 |
| 20260508194533 | 21 | 360 | 0.0 | 0.0 | 0.00 | 0.00 | 0.00 | 61 | 1016.2 |
| 20260508193031 | 21 | 360 | 0.0 | 0.0 | 0.00 | 0.00 | 0.00 | 56 | 1016.4 |
| 20260508191534 | 21 | 360 | 0.0 | 0.0 | 0.00 | 0.00 | 0.00 | 55 | 1016.5 |
| 20260508190038 | 21 | 360 | 0.0 | 0.0 | 0.00 | 0.00 | 0.00 | 59 | 1016.9 |
| 20260508184529 | 21 | 360 | 0.0 | 0.0 | 0.00 | 0.00 | 0.00 | 57 | 1017.0 |
| 20260508183031 | 20 | 360 | 0.0 | 0.0 | 0.00 | 0.00 | 0.00 | 59 | 1017.3 |
| 20260508181529 | 21 | 360 | 0.0 | 0.0 | 0.00 | 0.00 | 0.00 | 61 | 1017.4 |
| 20260508180028 | 21 | 360 | 0.0 | 0.0 | 0.00 | 0.00 | 0.00 | 66 | 1017.6 |
| 20260508174538 | 21 | 360 | 0.0 | 0.0 | 0.00 | 0.00 | 0.00 | 61 | 1017.8 |
| 20260508173026 | 20 | 360 | 0.0 | 0.0 | 0.00 | 0.00 | 0.00 | 56 | 1018.2 |
| 20260508171524 | 20 | 360 | 0.0 | 0.0 | 0.00 | 0.00 | 0.00 | 68 | 1018.0 |
| 20260508170031 | 20 | 360 | 0.0 | 0.0 | 0.00 | 0.00 | 0.00 | 61 | 1018.5 |
| 20260508164521 | 19 | 360 | 0.0 | 0.0 | 0.00 | 0.00 | 0.00 | 63 | 1018.8 |
| 20260508163037 | 19 | 360 | 0.0 | 0.0 | 0.00 | 0.00 | 0.00 | 61 | 1018.9 |
| 20260508161520 | 20 | 360 | 0.0 | 0.0 | 0.00 | 0.00 | 0.00 | 65 | 1019.1 |
| 20260508160024 | 18 | 360 | 0.0 | 0.0 | 0.00 | 0.00 | 0.00 | 71 | 1019.3 |
| 20260508154518 | 18 | 360 | 0.0 | 0.0 | 0.00 | 0.08 | 0.00 | 68 | 1019.6 |
| 20260508153025 | 19 | 360 | 0.0 | 0.0 | 0.00 | 0.08 | 0.00 | 68 | 1019.7 |
| 20260508151522 | 17 | 360 | 0.0 | 0.0 | 0.00 | 0.08 | 0.00 | 72 | 1019.8 |
| 20260508150012 | 17 | 360 | 0.0 | 0.0 | 0.00 | 0.08 | 0.00 | 74 | 1019.7 |
| 20260508144509 | 17 | 360 | 0.0 | 0.0 | 0.00 | 0.20 | 0.00 | 74 | 1019.4 |
| 20260508143008 | 17 | 360 | 0.0 | 0.0 | 0.00 | 0.20 | 0.00 | 75 | 1019.5 |
| 20260508141508 | 17 | 360 | 0.0 | 0.0 | 0.00 | 0.20 | 0.00 | 77 | 1019.8 |
| 20260508140005 | 16 | 360 | 0.0 | 0.0 | 0.00 | 0.20 | 0.00 | 80 | 1019.9 |
| 20260508134501 | 16 | 360 | 0.0 | 0.0 | 0.00 | 0.97 | 0.00 | 76 | 1019.8 |
| 20260508133106 | 15 | 360 | 0.0 | 0.0 | 0.00 | 0.97 | 0.00 | 80 | 1019.7 |
| 20260508131558 | 15 | 360 | 0.0 | 0.0 | 0.00 | 0.97 | 0.00 | 81 | 1019.7 |
| 20260508130105 | 13 | 360 | 0.0 | 0.0 | 0.00 | 0.97 | 0.00 | 85 | 1019.6 |
| 20260508124549 | 14 | 360 | 0.0 | 0.0 | 0.00 | 1.75 | 0.00 | 85 | 1019.3 |
| 20260508123045 | 13 | 360 | 0.0 | 0.0 | 0.00 | 1.75 | 0.00 | 90 | 1018.9 |
| 20260508121544 | 12 | 360 | 0.0 | 0.0 | 0.00 | 1.75 | 0.00 | 99 | 1018.9 |
| 20260508120045 | 11 | 360 | 0.0 | 0.0 | 0.00 | 1.75 | 0.00 | 98 | 1018.7 |
| 20260508114541 | 10 | 360 | 0.0 | 0.0 | 0.00 | 2.87 | 0.00 | 98 | 1018.7 |
| 20260508113048 | 10 | 360 | 0.0 | 0.0 | 0.00 | 2.87 | 0.00 | 98 | 1018.4 |
| 20260508111536 | 9 | 360 | 0.0 | 0.0 | 0.00 | 2.87 | 0.00 | 98 | 1018.0 |
| 20260508110046 | 8 | 360 | 0.0 | 0.0 | 0.00 | 2.87 | 0.00 | 97 | 1017.6 |
| 20260508104530 | 9 | 360 | 0.0 | 0.0 | 0.00 | 3.12 | 0.00 | 97 | 1017.3 |
| 20260508103035 | 9 | 360 | 0.0 | 0.0 | 0.00 | 3.12 | 0.00 | 97 | 1017.1 |
| 20260508101534 | 9 | 360 | 0.0 | 0.0 | 0.00 | 3.12 | 0.00 | 97 | 1017.0 |
| 20260508100024 | 9 | 360 | 0.0 | 0.0 | 0.00 | 3.12 | 0.00 | 97 | 1016.6 |
| 20260508094524 | 9 | 360 | 0.0 | 0.0 | 0.00 | 3.23 | 0.00 | 98 | 1016.5 |
| 20260508093039 | 9 | 360 | 0.0 | 0.0 | 0.00 | 3.23 | 0.00 | 97 | 1016.4 |
| 20260508091524 | 9 | 360 | 0.0 | 0.0 | 0.00 | 3.23 | 0.00 | 97 | 1016.4 |
| 20260508090028 | 9 | 360 | 0.0 | 0.0 | 0.00 | 3.23 | 0.00 | 97 | 1016.0 |
| 20260508084517 | 9 | 360 | 0.0 | 0.0 | 0.00 | 3.30 | 0.00 | 97 | 1016.0 |
| 20260508083023 | 9 | 360 | 0.0 | 0.0 | 0.00 | 3.30 | 0.00 | 97 | 1016.0 |
| 20260508081515 | 10 | 360 | 0.0 | 0.0 | 0.00 | 3.30 | 0.00 | 97 | 1016.0 |
| 20260508080023 | 10 | 360 | 0.0 | 0.0 | 0.00 | 3.30 | 0.00 | 97 | 1015.8 |
| 20260508074515 | 10 | 360 | 0.0 | 0.0 | 0.00 | 3.40 | 0.00 | 96 | 1015.7 |
| 20260508073012 | 10 | 360 | 0.0 | 0.0 | 0.00 | 3.40 | 0.00 | 97 | 1015.9 |
| 20260508071510 | 10 | 360 | 0.0 | 0.0 | 0.00 | 3.40 | 0.00 | 96 | 1015.7 |
| 20260508070007 | 10 | 360 | 0.0 | 0.0 | 0.00 | 3.40 | 0.00 | 96 | 1015.7 |
| 20260508064511 | 10 | 360 | 0.0 | 0.0 | 0.00 | 3.58 | 0.00 | 96 | 1015.6 |
| 20260508063005 | 11 | 360 | 0.0 | 0.0 | 0.00 | 3.58 | 0.00 | 96 | 1015.6 |
| 20260508061504 | 11 | 360 | 0.0 | 0.0 | 0.00 | 3.58 | 0.00 | 96 | 1015.5 |
| 20260508060002 | 11 | 360 | 0.0 | 0.0 | 0.00 | 3.58 | 0.00 | 95 | 1015.4 |
| 20260508054640 | 11 | 360 | 0.0 | 0.0 | 0.00 | 3.58 | 0.00 | 95 | 1015.5 |
| 20260508053100 | 11 | 360 | 0.0 | 0.0 | 0.00 | 3.58 | 0.00 | 95 | 1015.7 |
| 20260508051556 | 12 | 360 | 0.0 | 0.0 | 0.00 | 3.58 | 0.00 | 95 | 1015.7 |
| 20260508050054 | 12 | 360 | 0.0 | 0.0 | 0.00 | 3.58 | 0.00 | 94 | 1015.5 |
| 20260508044600 | 12 | 360 | 0.0 | 0.0 | 0.00 | 3.68 | 0.00 | 94 | 1015.5 |
| 20260508043050 | 12 | 360 | 0.0 | 0.0 | 0.00 | 3.68 | 0.00 | 93 | 1015.3 |
| 20260508041555 | 13 | 360 | 0.0 | 0.0 | 0.00 | 3.68 | 0.00 | 93 | 1015.3 |
| 20260508040052 | 13 | 360 | 0.0 | 0.0 | 0.00 | 3.68 | 0.00 | 93 | 1015.2 |
| 20260508034543 | 13 | 360 | 0.0 | 0.0 | 0.00 | 3.91 | 3.68 | 91 | 1015.0 |
| 20260508033040 | 14 | 360 | 0.0 | 0.0 | 0.00 | 3.91 | 3.68 | 90 | 1015.1 |